Molokai, HI

1:19 AM HST on September 21, 2017 (GMT -1000)
Molokai

Weather History for PHMK - October, 2013

Change the Weather History Date:

Friday, October 11, 2013

  Actual Average Record
Temperature  
Mean Temperature 74 °F -  
Max Temperature 84 °F 85 °F 89 °F (1989)
Min Temperature 64 °F 70 °F 62 °F (1991)
Cooling Degree Days 9    
Growing Degree Days 24 (Base 50)    
Moisture  
Dew Point 70 °F    
Average Humidity 83    
Maximum Humidity 100    
Minimum Humidity 65    
Precipitation  
Precipitation 0.00 in - - ()
Sea Level Pressure  
Sea Level Pressure 30.00 in    
Wind  
Wind Speed 4 mph (East)    
Max Wind Speed 10 mph    
Max Gust Speed 21 mph    
Visibility 10 miles    
Events      
Averages and records for this station are not official NWS values.
T = Trace of Precipitation, MM = Missing Value Source: NWS Daily Summary

Daily Weather History Graph

Daily Weather History Graph

Search for Another Location

Airport or City:

Trip Planner

Search our weather history database for the weather conditions in past years. The results will help you decide how hot, cold, wet, or windy it might be!

Date:

Astronomy

Oct. 11, 2013 Rise Set
Actual Time 6:22 AM HST 6:06 PM HST
Civil Twilight 6:00 AM HST 6:29 PM HST
Nautical Twilight 5:34 AM HST 6:55 PM HST
Astronomical Twilight 5:08 AM HST 7:20 PM HST
Moon 12:52 PM HST (10/11) No Moon Set
Length of Visible Light 12h 28m
Length of Day
11h 44m
Waxing Crescent, 50% of the Moon is Illuminated
Oct 11
Waxing Crescent
Oct 11
First Quarter
Oct 18
Full
Oct 26
Last Quarter
Nov 3
New

Hourly Weather History & Observations

Time (HST) Temp. Heat Index Dew Point Humidity Pressure Visibility Wind Dir Wind Speed Gust Speed Precip Events Conditions
12:54 AM 71.1 °F - 66.9 °F 87% 30.00 in 10.0 mi NE 3.5 mph - N/A   Clear
1:54 AM 68.0 °F - 66.0 °F 93% 29.98 in 10.0 mi NNW 4.6 mph - N/A   Clear
2:54 AM 69.1 °F - 66.9 °F 93% 29.97 in 10.0 mi Calm Calm - N/A   Clear
3:54 AM 68.0 °F - 66.9 °F 96% 29.96 in 10.0 mi NW 4.6 mph - N/A   Clear
4:54 AM 68.0 °F - 68.0 °F 100% 29.98 in 10.0 mi NW 3.5 mph - N/A   Clear
5:54 AM 64.9 °F - 64.9 °F 100% 29.99 in 10.0 mi Calm Calm - N/A   Clear
6:54 AM 68.0 °F - 66.9 °F 96% 30.00 in 10.0 mi Calm Calm - N/A   Clear
7:54 AM 77.0 °F - 68.0 °F 74% 30.01 in 10.0 mi ESE 3.5 mph - N/A   Clear
8:54 AM 79.0 °F - 70.0 °F 74% 30.02 in 10.0 mi South 6.9 mph - N/A   Clear
9:54 AM 82.9 °F 87.5 °F 71.1 °F 67% 30.02 in 10.0 mi SSW 10.4 mph - N/A   Clear
10:54 AM 82.9 °F 87.5 °F 71.1 °F 67% 30.01 in 10.0 mi North 8.1 mph - N/A   Partly Cloudy
11:54 AM 84.0 °F 89.0 °F 71.1 °F 65% 29.99 in 10.0 mi Variable 5.8 mph - N/A   Partly Cloudy
12:54 PM 84.0 °F 89.6 °F 72.0 °F 67% 29.98 in 10.0 mi South 9.2 mph - N/A   Scattered Clouds
1:54 PM 84.0 °F 89.6 °F 72.0 °F 67% 29.96 in 10.0 mi SE 8.1 mph - N/A   Scattered Clouds
2:29 PM 82.4 °F 87.2 °F 71.6 °F 70% 29.95 in 10.0 mi NE 8.1 mph - N/A   Mostly Cloudy
2:54 PM 81.0 °F 85.2 °F 72.0 °F 74% 29.95 in 10.0 mi NNE 9.2 mph - N/A   Mostly Cloudy
3:38 PM 80.6 °F 85.4 °F 73.4 °F 79% 29.95 in 10.0 mi Variable 4.6 mph 20.7 mph N/A   Mostly Cloudy
3:54 PM 80.1 °F 84.2 °F 73.0 °F 79% 29.96 in 10.0 mi SSE 5.8 mph - N/A   Mostly Cloudy
4:54 PM 80.1 °F 84.2 °F 73.0 °F 79% 29.97 in 10.0 mi South 9.2 mph - N/A   Mostly Cloudy
5:43 PM 78.8 °F - 71.6 °F 78% 29.98 in 10.0 mi SSE 6.9 mph - N/A   Mostly Cloudy
5:54 PM 78.1 °F - 72.0 °F 81% 29.99 in 10.0 mi SSE 8.1 mph - N/A   Mostly Cloudy
6:54 PM 77.0 °F - 71.1 °F 82% 30.01 in 10.0 mi SSE 3.5 mph - N/A   Clear
7:38 PM 75.2 °F - 71.6 °F 89% 30.03 in 10.0 mi North 4.6 mph - N/A   Mostly Cloudy
7:54 PM 75.9 °F - 72.0 °F 87% 30.04 in 10.0 mi NNE 3.5 mph - N/A   Mostly Cloudy
8:54 PM 73.9 °F - 71.1 °F 91% 30.06 in 10.0 mi Calm Calm - N/A   Clear
9:54 PM 73.0 °F - 70.0 °F 90% 30.06 in 10.0 mi Calm Calm - N/A   Clear
10:54 PM 73.0 °F - 71.1 °F 93% 30.05 in 10.0 mi North 3.5 mph - N/A   Clear
11:54 PM 73.0 °F - 71.1 °F 93% 30.04 in 10.0 mi NNE 4.6 mph - N/A   Clear